FW4751 Weather Reports


time (UTC)temp
C
wind
direction
speed
KPH
gust
KPH
rain 1hr
cm
rain 24hr
cm
rain mn
cm
humidity
%
barometer
mb
20260510054504 13 0.0 3.2 0.00 0.00 0.00 83 1015.6
20260510054003 13 45 1.6 3.2 0.00 0.00 0.00 83 1015.6
20260510053503 13 45 1.6 4.8 0.00 0.00 0.00 82 1015.6
20260510053004 13 45 1.6 4.8 0.00 0.00 0.00 82 1015.6
20260510052503 13 0 1.6 3.2 0.00 0.00 0.00 82 1015.6
20260510052105 13 45 1.6 4.8 0.00 0.00 0.00 82 1015.6
20260510051504 13 45 1.6 4.8 0.00 0.00 0.00 81 1015.5
20260510051004 13 45 1.6 4.8 0.00 0.00 0.00 81 1015.5
20260510050503 13 45 1.6 6.4 0.00 0.00 0.00 81 1015.5
20260510050004 13 23 1.6 4.8 0.00 0.00 0.00 80 1015.5
20260510045504 13 45 1.6 4.8 0.00 0.00 0.00 80 1015.5
20260510045004 14 45 1.6 4.8 0.00 0.00 0.00 80 1015.4
20260510044503 14 45 1.6 6.4 0.00 0.00 0.00 80 1015.4
20260510044003 14 45 3.2 8.0 0.00 0.00 0.00 79 1015.3
20260510043503 14 45 3.2 6.4 0.00 0.00 0.00 79 1015.3
20260510043003 14 45 3.2 8.0 0.00 0.00 0.00 79 1015.2
20260510042523 14 45 3.2 8.0 0.00 0.00 0.00 78 1015.3
20260510042003 14 45 1.6 4.8 0.00 0.00 0.00 78 1015.2
20260510041504 14 45 1.6 4.8 0.00 0.00 0.00 78 1015.2
20260510041003 15 45 1.6 4.8 0.00 0.00 0.00 78 1015.1
20260510040504 15 45 1.6 4.8 0.00 0.00 0.00 77 1015.0
20260510040003 15 45 1.6 4.8 0.00 0.00 0.00 77 1015.0
20260510035503 15 45 1.6 4.8 0.00 0.00 0.00 76 1015.1
20260510035024 15 45 1.6 6.4 0.00 0.00 0.00 76 1015.0
20260510034523 15 45 1.6 6.4 0.00 0.00 0.00 76 1015.0
20260510034003 15 68 1.6 4.8 0.00 0.00 0.00 75 1014.9
20260510033503 15 68 3.2 8.0 0.00 0.00 0.00 75 1014.9
20260510033024 15 68 1.6 8.0 0.00 0.00 0.00 74 1014.9
20260510032503 15 68 1.6 4.8 0.00 0.00 0.00 74 1014.8
20260510032003 15 45 3.2 6.4 0.00 0.00 0.00 73 1014.6
20260510031503 16 45 3.2 8.0 0.00 0.00 0.00 73 1014.5
20260510031003 16 45 1.6 6.4 0.00 0.00 0.00 72 1014.5
20260510030503 16 45 1.6 4.8 0.00 0.00 0.00 72 1014.5
20260510030003 16 45 1.6 6.4 0.00 0.00 0.00 72 1014.4
20260510025503 16 45 1.6 6.4 0.00 0.00 0.00 71 1014.3
20260510025003 16 45 1.6 4.8 0.00 0.00 0.00 71 1014.2
20260510024503 16 45 3.2 6.4 0.00 0.00 0.00 71 1014.2
20260510024003 16 45 3.2 4.8 0.00 0.00 0.00 70 1014.3
20260510023503 17 45 3.2 8.0 0.00 0.00 0.00 70 1014.2
20260510023003 17 45 3.2 8.0 0.00 0.00 0.00 69 1014.1
20260510022503 17 68 1.6 9.7 0.00 0.00 0.00 69 1014.1
20260510022003 17 338 3.2 9.7 0.00 0.00 0.00 68 1014.0
20260510021503 17 45 3.2 9.7 0.00 0.00 0.00 68 1014.2
20260510021023 17 338 4.8 16.1 0.00 0.00 0.00 67 1014.1
20260510020503 17 45 4.8 14.5 0.00 0.00 0.00 67 1014.0
20260510020003 18 45 4.8 12.9 0.00 0.00 0.00 66 1014.2
20260510015503 18 45 4.8 11.3 0.00 0.00 0.00 66 1014.0
20260510015003 18 338 4.8 12.9 0.00 0.00 0.00 65 1014.1
20260510014644 18 45 3.2 8.0 0.00 0.00 0.00 66 1014.1
20260510014003 18 45 4.8 12.9 0.00 0.00 0.00 66 1014.0
20260510013503 18 45 4.8 14.5 0.00 0.00 0.00 65 1014.1
20260510013003 18 45 4.8 12.9 0.00 0.00 0.00 65 1013.9
20260510012503 18 338 6.4 12.9 0.00 0.00 0.00 64 1014.1
20260510012003 19 0 6.4 14.5 0.00 0.00 0.00 63 1014.0
20260510011503 19 45 6.4 12.9 0.00 0.00 0.00 63 1014.0
20260510011003 20 0 4.8 12.9 0.00 0.00 0.00 63 1014.0
20260510010503 20 45 4.8 14.5 0.00 0.00 0.00 62 1013.9
20260510010004 20 338 6.4 12.9 0.00 0.00 0.00 62 1014.0
20260510005504 20 338 4.8 11.3 0.00 0.00 0.00 61 1013.9
20260510005005 20 45 3.2 14.5 0.00 0.00 0.00 61 1013.9
20260510004505 20 338 4.8 14.5 0.00 0.00 0.00 61 1013.9
20260510004025 20 45 4.8 11.3 0.00 0.00 0.00 61 1013.9
20260510003505 20 45 4.8 11.3 0.00 0.00 0.00 61 1013.9
20260510003005 20 0 6.4 12.9 0.00 0.00 0.00 60 1013.9
20260510002504 20 68 4.8 9.7 0.00 0.00 0.00 60 1013.9
20260510002010 20 45 6.4 12.9 0.00 0.00 0.00 61 1013.8
20260510001504 20 45 4.8 12.9 0.00 0.00 0.00 61 1013.9
20260510001005 20 45 4.8 12.9 0.00 0.00 0.00 61 1013.9
20260510000525 21 45 6.4 14.5 0.00 0.00 0.00 61 1013.9
20260510000005 21 338 4.8 14.5 0.00 0.00 0.00 60 1014.0
20260509235505 21 338 4.8 11.3 0.00 0.00 0.00 61 1014.0
20260509235005 21 338 6.4 14.5 0.00 0.00 0.00 60 1013.9
20260509234505 21 338 4.8 12.9 0.00 0.00 0.00 61 1014.1
20260509234024 21 45 4.8 11.3 0.00 0.00 0.00 61 1014.0
20260509233505 21 0 8.0 17.7 0.00 0.00 0.00 60 1013.9
20260509233024 21 338 6.4 16.1 0.00 0.00 0.00 59 1013.9
20260509232505 21 45 6.4 14.5 0.00 0.00 0.00 60 1013.8
20260509232046 21 45 8.0 16.1 0.00 0.00 0.00 58 1013.9
20260509231505 22 338 6.4 17.7 0.00 0.00 0.00 57 1013.9
20260509231005 22 338 4.8 17.7 0.00 0.00 0.00 57 1013.9
20260509230504 22 338 4.8 16.1 0.00 0.00 0.00 57 1013.9
20260509230004 21 338 4.8 14.5 0.00 0.00 0.00 59 1014.0
20260509225504 21 338 6.4 17.7 0.00 0.00 0.00 58 1014.2
20260509225004 22 0 8.0 14.5 0.00 0.00 0.00 57 1014.2
20260509224505 22 338 6.4 20.9 0.00 0.00 0.00 56 1014.2
20260509224105 22 45 4.8 14.5 0.00 0.00 0.00 56 1014.3
20260509223504 22 338 6.4 16.1 0.00 0.00 0.00 55 1014.6
20260509223005 23 45 6.4 16.1 0.00 0.00 0.00 55 1014.4
20260509222524 23 45 4.8 14.5 0.00 0.00 0.00 54 1014.5
20260509222024 23 45 3.2 9.7 0.00 0.00 0.00 55 1014.5
20260509221524 23 338 4.8 14.5 0.00 0.00 0.00 55 1014.6
20260509221004 22 315 4.8 11.3 0.00 0.00 0.00 56 1014.6
20260509220504 22 338 4.8 14.5 0.00 0.00 0.00 57 1014.6
20260509220005 22 315 4.8 14.5 0.00 0.00 0.00 57 1014.7
20260509215526 22 338 3.2 16.1 0.00 0.00 0.00 59 1014.7
20260509215004 22 45 8.0 20.9 0.00 0.00 0.00 60 1014.7
20260509214504 22 45 6.4 14.5 0.00 0.00 0.00 62 1014.7
20260509214005 22 45 6.4 14.5 0.00 0.00 0.00 63 1014.7
20260509213505 21 338 8.0 16.1 0.00 0.00 0.00 62 1014.8
20260509213005 21 45 8.0 17.7 0.00 0.00 0.00 62 1014.8
20260509212504 21 45 6.4 16.1 0.00 0.00 0.00 63 1014.8
20260509212024 21 45 6.4 17.7 0.00 0.00 0.00 64 1014.9
20260509211524 21 45 8.0 16.1 0.00 0.00 0.00 65 1015.0
20260509211004 21 45 6.4 17.7 0.00 0.00 0.00 65 1015.1
20260509210525 21 45 6.4 12.9 0.00 0.00 0.00 65 1015.2
20260509210004 21 45 6.4 16.1 0.00 0.00 0.00 66 1015.2
20260509205504 21 45 6.4 14.5 0.00 0.00 0.00 66 1015.1
20260509205024 21 45 4.8 12.9 0.00 0.00 0.00 66 1015.3
20260509204504 20 45 6.4 12.9 0.00 0.00 0.00 67 1015.3
20260509204004 20 45 6.4 14.5 0.00 0.00 0.00 67 1015.3
20260509203524 20 45 6.4 16.1 0.00 0.00 0.00 67 1015.4
20260509203004 20 45 4.8 11.3 0.00 0.00 0.00 67 1015.4
20260509202504 20 45 6.4 12.9 0.00 0.00 0.00 68 1015.4
20260509202004 20 45 4.8 14.5 0.00 0.00 0.00 68 1015.5
20260509201504 20 45 4.8 11.3 0.00 0.00 0.00 68 1015.5
20260509201024 20 68 4.8 9.7 0.00 0.00 0.00 69 1015.5
20260509200504 20 68 4.8 11.3 0.00 0.00 0.00 70 1015.7
20260509200004 20 68 4.8 11.3 0.00 0.00 0.00 70 1015.8
20260509195504 20 45 4.8 12.9 0.00 0.00 0.00 70 1015.8
20260509195024 19 68 4.8 11.3 0.00 0.00 0.00 70 1015.8
20260509194504 19 68 4.8 11.3 0.00 0.00 0.00 71 1015.7
20260509194004 19 45 6.4 12.9 0.00 0.00 0.00 71 1015.8
20260509193504 19 68 4.8 9.7 0.00 0.00 0.00 72 1015.7
20260509193004 19 45 4.8 8.0 0.00 0.00 0.00 72 1015.9
20260509192544 19 45 4.8 11.3 0.00 0.00 0.00 72 1015.9
20260509192004 19 45 6.4 14.5 0.00 0.00 0.00 71 1016.0
20260509191524 19 45 4.8 9.7 0.00 0.00 0.00 71 1016.0
20260509191004 18 45 4.8 9.7 0.00 0.00 0.00 71 1016.1
20260509190504 18 45 4.8 9.7 0.00 0.00 0.00 71 1016.1
20260509190024 18 68 3.2 9.7 0.00 0.00 0.00 71 1016.2
20260509185524 18 45 4.8 9.7 0.00 0.00 0.00 70 1016.1
20260509185004 18 45 4.8 11.3 0.00 0.00 0.00 70 1016.1
20260509184525 19 68 4.8 9.7 0.00 0.00 0.00 69 1016.2
20260509184004 20 45 4.8 11.3 0.00 0.00 0.00 66 1016.3
20260509183504 20 45 4.8 9.7 0.00 0.00 0.00 65 1016.3
20260509183024 20 45 3.2 9.7 0.00 0.00 0.00 65 1016.2
20260509182504 20 45 3.2 8.0 0.00 0.00 0.00 67 1016.2
20260509182003 20 68 1.6 8.0 0.00 0.00 0.00 68 1016.1
20260509181504 20 113 3.2 6.4 0.00 0.00 0.00 68 1016.2
20260509181004 19 135 1.6 4.8 0.00 0.00 0.00 68 1016.2
20260509180504 19 90 1.6 6.4 0.00 0.00 0.00 69 1016.3
20260509180004 18 45 1.6 6.4 0.00 0.00 0.00 69 1016.2
20260509175504 18 45 1.6 4.8 0.00 0.00 0.00 71 1016.3
20260509175004 18 45 3.2 6.4 0.00 0.00 0.00 70 1016.3
20260509174504 18 113 3.2 6.4 0.00 0.00 0.00 70 1016.4
20260509174004 18 68 3.2 6.4 0.00 0.00 0.00 70 1016.5
20260509173504 18 68 1.6 6.4 0.00 0.00 0.00 70 1016.6
20260509173004 18 45 3.2 6.4 0.00 0.00 0.00 70 1016.5
20260509172504 18 113 3.2 6.4 0.00 0.00 0.00 70 1016.5
20260509172004 18 68 3.2 6.4 0.00 0.00 0.00 70 1016.5
20260509171524 18 68 3.2 8.0 0.00 0.00 0.00 71 1016.4
20260509171024 17 68 1.6 4.8 0.00 0.00 0.00 72 1016.4
20260509170504 17 68 1.6 6.4 0.00 0.00 0.00 72 1016.4
20260509170024 17 135 1.6 4.8 0.00 0.00 0.00 72 1016.4
20260509165524 17 45 3.2 8.0 0.00 0.00 0.00 72 1016.4
20260509165004 17 68 3.2 6.4 0.00 0.00 0.00 71 1016.4
20260509164504 17 113 3.2 8.0 0.00 0.00 0.00 73 1016.5
20260509164004 17 113 1.6 3.2 0.00 0.00 0.00 74 1016.5
20260509163524 17 90 1.6 4.8 0.00 0.00 0.00 73 1016.5
20260509163004 17 68 1.6 4.8 0.00 0.00 0.00 73 1016.6
20260509162524 17 68 1.6 4.8 0.00 0.00 0.00 73 1016.5
20260509162004 17 315 1.6 4.8 0.00 0.00 0.00 73 1016.5
20260509161504 16 113 1.6 4.8 0.00 0.00 0.00 74 1016.6
20260509161004 16 113 1.6 3.2 0.00 0.00 0.00 75 1016.5
20260509160504 16 45 1.6 3.2 0.00 0.00 0.00 77 1016.6
20260509160004 15 248 1.6 3.2 0.00 0.00 0.00 78 1016.6
20260509155504 15 180 1.6 3.2 0.00 0.00 0.00 79 1016.6
20260509155004 14 113 1.6 3.2 0.00 0.00 0.00 81 1016.6
20260509154504 14 135 1.6 3.2 0.00 0.00 0.00 81 1016.6
20260509154004 14 135 1.6 3.2 0.00 0.00 0.00 81 1016.6
20260509153524 14 180 1.6 3.2 0.00 0.00 0.00 81 1016.7
20260509153004 14 180 1.6 3.2 0.00 0.00 0.00 82 1016.6
20260509152503 14 225 1.6 3.2 0.00 0.00 0.00 83 1016.6
20260509152024 13 158 1.6 4.8 0.00 0.00 0.00 83 1016.6
20260509151504 13 158 1.6 3.2 0.00 0.00 0.00 84 1016.6
20260509151004 13 158 1.6 4.8 0.00 0.00 0.00 84 1016.6
20260509150503 13 225 1.6 3.2 0.00 0.00 0.00 85 1016.7
20260509150044 13 203 1.6 4.8 0.00 0.00 0.00 86 1016.5
20260509145504 13 203 1.6 4.8 0.00 0.00 0.00 87 1016.7
20260509145004 13 180 1.6 3.2 0.00 0.00 0.00 88 1016.6
20260509144504 13 135 1.6 4.8 0.00 0.00 0.00 88 1016.6
20260509144004 12 203 1.6 3.2 0.00 0.00 0.00 88 1016.6
20260509143524 12 180 1.6 4.8 0.00 0.00 0.00 89 1016.4
20260509143003 12 158 1.6 3.2 0.00 0.00 0.00 89 1016.6
20260509142504 12 225 1.6 3.2 0.00 0.00 0.00 89 1016.5
20260509142004 12 203 1.6 4.8 0.00 0.00 0.00 89 1016.6
20260509141504 12 203 1.6 4.8 0.00 0.00 0.00 89 1016.6
20260509141004 12 0.0 3.2 0.00 0.00 0.00 89 1016.5
20260509140503 12 0.0 3.2 0.00 0.00 0.00 89 1016.5
20260509140005 12 203 1.6 3.2 0.00 0.00 0.00 90 1016.4
20260509135503 12 0.0 3.2 0.00 0.00 0.00 90 1016.3
20260509135004 12 135 1.6 3.2 0.00 0.00 0.00 90 1016.2
20260509134503 12 0.0 1.6 0.00 0.00 0.00 90 1016.2
20260509134003 12 203 1.6 3.2 0.00 0.00 0.00 90 1016.3
20260509133503 12 0.0 3.2 0.00 0.00 0.00 90 1016.3
20260509133004 12 203 1.6 4.8 0.00 0.00 0.00 90 1016.1
20260509132524 12 0.0 3.2 0.00 0.00 0.00 90 1016.2
20260509132004 12 0.0 1.6 0.00 0.00 0.00 90 1016.1
20260509131503 12 135 1.6 3.2 0.00 0.00 0.00 90 1016.1
20260509131003 12 0.0 3.2 0.00 0.00 0.00 90 1016.1
20260509130504 12 0.0 1.6 0.00 0.00 0.00 90 1016.1
20260509130003 12 0.0 3.2 0.00 0.00 0.00 90 1016.2
20260509125543 12 0.0 3.2 0.00 0.00 0.00 90 1016.1
20260509125003 12 0.0 1.6 0.00 0.00 0.00 90 1016.1
20260509124504 12 0.0 1.6 0.00 0.00 0.00 90 1016.2
20260509124004 12 180 1.6 3.2 0.00 0.00 0.00 90 1016.1
20260509123503 12 0.0 3.2 0.00 0.00 0.00 91 1016.0
20260509123003 12 0.0 1.6 0.00 0.00 0.00 91 1016.1
20260509122503 12 0.0 1.6 0.00 0.00 0.00 91 1016.1
20260509122003 12 225 1.6 3.2 0.00 0.00 0.00 91 1016.1
20260509121503 12 225 1.6 3.2 0.00 0.00 0.00 91 1016.1
20260509121003 12 0.0 3.2 0.00 0.00 0.00 91 1016.2
20260509120503 12 0.0 1.6 0.00 0.00 0.00 91 1016.2
20260509120144 12 0.0 1.6 0.00 0.00 0.00 91 1016.2
20260509115503 12 158 1.6 3.2 0.00 0.00 0.00 91 1016.2
20260509115003 12 135 1.6 3.2 0.00 0.00 0.00 91 1016.2
20260509114503 12 203 1.6 3.2 0.00 0.00 0.00 91 1016.1
20260509114003 12 113 1.6 3.2 0.00 0.00 0.00 91 1016.2
20260509113503 11 0.0 1.6 0.00 0.00 0.00 91 1016.2
20260509113003 11 0.0 1.6 0.00 0.00 0.00 91 1016.2
20260509112503 11 0.0 3.2 0.00 0.00 0.00 91 1016.1
20260509112003 11 0.0 1.6 0.00 0.00 0.00 91 1016.1
20260509111503 11 113 1.6 6.4 0.00 0.00 0.00 91 1016.1
20260509111003 11 113 1.6 4.8 0.00 0.00 0.00 91 1016.1
20260509110503 11 0.0 3.2 0.00 0.00 0.00 91 1016.1
20260509110003 11 0.0 1.6 0.00 0.00 0.00 91 1016.0
20260509105503 11 0.0 1.6 0.00 0.00 0.00 91 1016.0
20260509105003 11 0.0 1.6 0.00 0.00 0.00 91 1016.1
20260509104523 11 0.0 1.6 0.00 0.00 0.00 91 1016.1
20260509104003 11 0.0 3.2 0.00 0.00 0.00 91 1016.0
20260509103505 11 0.0 1.6 0.00 0.00 0.00 91 1016.1
20260509103005 11 0.0 1.6 0.00 0.00 0.00 91 1016.1
20260509102525 11 0.0 1.6 0.00 0.00 0.00 91 1016.3
20260509102005 11 0.0 1.6 0.00 0.00 0.00 91 1016.2
20260509101505 11 0.0 1.6 0.00 0.00 0.00 91 1016.3
20260509101025 11 0.0 1.6 0.00 0.00 0.00 91 1017.0
20260509100505 11 0.0 1.6 0.00 0.00 0.00 91 1016.5
20260509100005 11 0.0 1.6 0.00 0.00 0.00 90 1016.4
20260509095505 11 0.0 1.6 0.00 0.00 0.00 90 1016.3
20260509095005 10 0.0 1.6 0.00 0.00 0.00 90 1016.3
20260509094525 10 0.0 1.6 0.00 0.00 0.00 90 1016.3
20260509094004 10 0.0 1.6 0.00 0.00 0.00 90 1016.4
20260509093525 10 0.0 1.6 0.00 0.00 0.00 90 1016.5
20260509093005 10 0.0 1.6 0.00 0.00 0.00 89 1016.4
20260509092505 10 0.0 1.6 0.00 0.00 0.00 89 1016.5
20260509092005 10 0.0 1.6 0.00 0.00 0.00 89 1016.6
20260509091505 10 0.0 1.6 0.00 0.00 0.00 89 1016.6
20260509091005 10 0.0 1.6 0.00 0.00 0.00 89 1016.6
20260509090504 10 0.0 1.6 0.00 0.00 0.00 88 1016.5
20260509090005 10 0.0 1.6 0.00 0.00 0.00 88 1016.7
20260509085505 10 0.0 1.6 0.00 0.00 0.00 88 1016.7
20260509085005 10 0.0 1.6 0.00 0.00 0.00 88 1016.6
20260509084525 10 0.0 1.6 0.00 0.00 0.00 88 1016.6
20260509084005 10 0.0 1.6 0.00 0.00 0.00 87 1016.8
20260509083525 10 0.0 1.6 0.00 0.00 0.00 87 1016.8
20260509083004 10 0.0 1.6 0.00 0.00 0.00 87 1016.8
20260509082525 10 0.0 1.6 0.00 0.00 0.00 87 1016.8
20260509082005 10 0.0 1.6 0.00 0.00 0.00 87 1016.9
20260509081504 10 0.0 1.6 0.00 0.00 0.00 86 1016.9
20260509081005 10 0.0 3.2 0.00 0.00 0.00 86 1016.8
20260509080504 10 0.0 3.2 0.00 0.00 0.00 86 1016.9
20260509080006 10 0.0 1.6 0.00 0.00 0.00 86 1017.0
20260509075505 10 0.0 1.6 0.00 0.00 0.00 86 1017.0
20260509075004 10 0.0 1.6 0.00 0.00 0.00 86 1017.0
20260509074505 11 0.0 1.6 0.00 0.00 0.00 86 1017.1
20260509074004 11 0.0 1.6 0.00 0.00 0.00 86 1016.9
20260509073504 11 0.0 1.6 0.00 0.00 0.00 86 1017.0
20260509073004 11 0.0 1.6 0.00 0.00 0.00 86 1017.0
20260509072504 11 0.0 1.6 0.00 0.00 0.00 86 1017.0
20260509072004 11 0.0 1.6 0.00 0.00 0.00 86 1017.0
20260509071505 11 0.0 1.6 0.00 0.00 0.00 85 1016.9
20260509071004 11 0.0 1.6 0.00 0.00 0.00 85 1017.0
20260509070504 11 0.0 1.6 0.00 0.00 0.00 85 1017.1
20260509070006 11 0.0 1.6 0.00 0.00 0.00 85 1017.1
20260509065504 11 0.0 1.6 0.00 0.00 0.00 84 1017.1
20260509065004 11 0.0 1.6 0.00 0.00 0.00 84 1017.2
20260509064504 11 0.0 1.6 0.00 0.00 0.00 84 1017.2
20260509064004 11 0.0 1.6 0.00 0.00 0.00 84 1017.3
20260509063504 11 0.0 1.6 0.00 0.00 0.00 84 1017.2
20260509063005 12 0.0 1.6 0.00 0.00 0.00 84 1017.4
20260509062504 12 0.0 1.6 0.00 0.00 0.00 84 1017.3
20260509062004 12 0.0 1.6 0.00 0.00 0.00 83 1017.3
20260509061504 12 0.0 3.2 0.00 0.00 0.00 83 1017.3
20260509061024 12 0.0 1.6 0.00 0.00 0.00 83 1017.4
20260509060504 12 0.0 1.6 0.00 0.00 0.00 83 1017.4
20260509060004 12 0.0 1.6 0.00 0.00 0.00 83 1017.3
20260509055504 12 338 1.6 3.2 0.00 0.00 0.00 83 1017.5
20260509055004 12 0.0 3.2 0.00 0.00 0.00 83 1017.5